Regional Weather Roundup
Issued by NWS

Home | Current Version | Previous Version | Graphics & Text | Print | Product List | Glossary On
Versions: 1 2 3 4 5 6 7 8 9 10 11 12 13 14 15 16 17 18 19 20 21 22 23 24 25 26 27 28 29 30 31 32 33 34 35 36 37 38 39 40 41 42 43 44 45 46 47 48 49 50
000
ASUS43 KTOP 011559
RWRKS

WEATHER ROUNDUP FOR KANSAS
NATIONAL WEATHER SERVICE GOODLAND KS
1000 AM CST WED MAR 01 2017

NOTE:  "FAIR" INDICATES FEW OR NO CLOUDS BELOW 12,000 FEET WITH NO
SIGNIFICANT WEATHER AND/OR OBSTRUCTIONS TO VISIBILITY.

KSZ001>006-013>018-027>032-041>047-011700-
NORTHWEST KANSAS

CITY           SKY/WX    TMP DP  RH WIND       PRES   REMARKS
GOODLAND       SUNNY     37  10  32 NW33G40   30.21R WCI  24
HAYS           SUNNY     42  14  32 NW24G32   30.18R
HILL CITY      SUNNY     42  15  33 NW25G33   30.19R
RUSSELL        SUNNY     42  16  34 NW20G28   30.17R
$$

KSZ061>065-074>080-084>089-011700-
SOUTHWEST KANSAS

CITY           SKY/WX    TMP DP  RH WIND       PRES   REMARKS
DODGE CITY     SUNNY     43   9  24 NW23G38   30.22R
ELKHART          N/A     40   7  25 NW16        N/A  WCI  31
GARDEN CITY    SUNNY     41   7  24 N29G43    30.24R
GREAT BEND     SUNNY     43  14  31 NW20G26   30.19R
LIBERAL        SUNNY     41  18  38 NW23      30.28R
$$

KSZ066>073-081>083-090>101-011700-
SOUTHEAST KANSAS

CITY           SKY/WX    TMP DP  RH WIND       PRES   REMARKS
CHANUTE        SUNNY     44  28  53 NW16      30.13R
COFFEYVILLE    SUNNY     45  27  49 NW18      30.15R
HUTCHINSON     SUNNY     44  16  32 NW18      30.18R
NEWTON         SUNNY     42  18  37 NW18      30.17R
PARSONS        SUNNY     46  29  51 NW16      30.15R
WICHITA INTL   SUNNY     44  17  33 NW20      30.18R
WICHITA JABRA  SUNNY     43  19  38 NW21G26   30.17R
WINFIELD       SUNNY     45  19  35 NW20      30.20R
$$

KSZ007>012-019>026-033>040-048>060-102>105-011700-
NORTHEAST KANSAS

CITY           SKY/WX    TMP DP  RH WIND       PRES   REMARKS
CONCORDIA      SUNNY     39  25  57 NW12      30.13R WCI  32
EMPORIA        SUNNY     41  25  53 NW18G25   30.13R
LAWRENCE         N/A     41  28  60 W18G31    30.08R
MANHATTAN      SUNNY     40  26  57 NW12G17   30.14R WCI  33
OLATHE IND     MOSUNNY   42  28  57 NW18G25   30.07R
OLATHE EXE     MOSUNNY   40  29  64 NW20G28   30.05R WCI  30
SALINA         SUNNY     43  21  41 NW18      30.16R
TOPEKA BILLARD SUNNY     41  29  62 W13G22    30.10R
TOPEKA FORBES  SUNNY     42  27  55 NW21      30.09R
$$



USA.gov is the U.S. government's official web portal to all federal, state and local government web resources and services.